SCP
0 0 0 0 0 0 0 0 0 0 0 0 0 0 0 0 0 0 0 0 0 0 0 0 0 0 0 0 0 0 0 -0 -0 -0 0 -0 -0 -0 0 -0 -0 -0 0 0 0 0 0 0 0
0 0 0 0 0 0 0 0 0 0 0 0 0 0 0 0 0 0 0 0 0 0 0 0 0 0 0 0 0 -0 -0 -0 -0 -0 -0 -0 -0 -0 -0 -0 -0 0 0 0 0 0 0 0 0
0 0 0 0 0 0 0 0 0 0 0 0 0 0 0 0 0 0 0 0 0 0 0 0 0 0 0 0 0 -0 -0 -0 -0 -0 -0 -0 -0 0 0 0 0 0 0 0 0 0 0 0 0
0 0 0 0 0 0 0 0 0 0 0 0 0 0 0 0 0 0 0 0 0 0 0 0 0 0 0 0 0 -0 -0 -0 -0 -0 -0 0 0 0 0 0 0 0 0 0 0 0 0 0 0
0 0 0 0 0 0 0 0 0 0 0 0 0 0 0 0 0 0 0 0 0 0 0 0 0 0 0 0 0 -0 -0 0 0 0 0 0 0 0 0 0 0 0 0 0 0 0 0 0 0
0 0 0 0 0 0 0 0 0 0 0 0 0 0 0 0 0 0 0 0 0 0 0 0 0 0 0 0 0 0 0 0 0 0 0 0 0 0 0 0 0 0 0 0 0 0 0 0 0
0 0 0 0 0 0 0 0 0 0 0 0 0 0 0 -0 0 0 0 0 0 0 0 0 0 0 0 0 0 0 0 0 0 0 0 0 0 0 0 0 0 0 0 0 0 0 0 0 0
0 0 0 0 0 0 0 0 0 0 0 0 0 0 0 -0 0 0 0 0 0 0 0 0 0 0 0 0 0 0 0 0 0 0 0 0 0 0 0 0 0 0 0 0 0 0 0 0 0
0 0 0 0 0 0 0 0 0 0 0 0 0 0 0 0 0 0 0 0 0 0 0 0 0 0 0 0 0 0 0 0 0 0 0 0 0 0 0 0 0 0 0 0 0 0 0 0 0
0 0 0 0 0 0 0 0 0 0 0 0 0 0 0 0 0 0 -0 -0 -0 -0 -0 0 0 0 0 0 0 0 0 0 0 0 0 0 0 0 0 0 0 0 0 0 0 0 0 0 0
0 0 0 0 0 0 0 0 0 0 0 0 0 0 0 0 0 0 -0 -0 -0 -0 0 0 0 0 0 0 0 0 0 0 0 0 0 0 0 0 0 0 0 0 0 0 0 0 0 0 0
0 0 0 0 0 0 0 0 0 0 0 0 0 0 0 0 0 -0 -0 -0 0 -0 -0 0 0 0 0 0 0 0 0 0 0 0 0 0 0 0 0 0 0 0 0 0 0 0 0 0 0
0 0 0 0 0 0 0 0 0 0 0 0 0 0 0 0 0 0 0 0 0 0 0 0 0 0 0 0 0 0 0 0 0 0 0 0 0 0 0 0 0 0 0 0 0 0 0 0 0
0 0 0 0 0 0 0 0 0 0 0 0 0 0 0 0 0 0 0 0 0 0 0 0 0 0 0 0 0 0 0 0 0 0 0 0 0 0 0 0 0 0 0 0 0 0 0 0 0
0 0 0 0 0 0 0 0 0 0 0 0 0 0 0 0 0 0 0 0 0 0 0 0 0 0 0 0 0 0 0 0 0 0 0 0 0 0 0 0 0 0 0 0 0 0 0 0 0
0 0 0 0 0 0 0 0 0 0 0 0 0 0 0 0 0 0 0 0 0 0 0 0 0 0 0 0 0 0 0 0 0 0 0 0 0 0 0 0 0 0 0 0 0 0 0 0 0
0 0 0 0 0 0 0 0 0 0 0 0 0 0 0 0 0 0 0 0 0 0 0 0 0 0 0 0 0 0 0 0 0 0 0 0 0 0 0 0 0 0 0 0 0 0 0 0 0
0 0 0 0 0 0 0 0 0 0 0 0 0 0 0 0 0 0 0 0 0 0 0 0 0 0 0 0 0 0 0 0 0 0 0 0 0 0 0 0 0 0 0 0 0 0 0 0 0
0 0 0 0 0 0 0 0 0 0 0 0 0 0 0 0 0 0 0 0 0 0 0 0 0 0 0 0 0 0 0 0 0 0 0 0 0 0 0 0 0 0 0 0 0 0 0 0 0
0 0 0 0 0 0 0 0 0 0 0 0 0 0 0 0 0 0 0 0 0 0 0 0 0 0 0 0 0 0 0 0 0 0 0 0 0 0 0 0 0 0 0 0 0 0 0 0 0
0 0 0 0 0 0 0 0 -0 0 0 0 0 0 0 0 0 0 0 0 0 0 0 0 0 0 0 0 0 0 0 0 0 0 0 0 0 0 0 0 0 0 0 0 0 0 0 0 0
0 0 0 0 0 0 0 0 0 0 -0 -0 0 0 0 0 0 0 0 0 0 0 0 0 0 0 0 0 0 0 0 0 0 0 0 0 0 0 0 0 0 0 0 0 0 0 0 0 0
0 0 0 0 0 0 0 0 0 0 0 0 0 0 0 0 0 0 0 0 0 0 0 0 0 0 0 0 0 0 0 0 0 0 0 0 0 0 0 0 0 0 0 0 0 0 0 0 0
0 0 0 0 0 0 0 0 -0 0 0 0 0 0 0 0 0 0 0 0 0 0 0 0 0 0 0 0 0 0 0 0 0 0 0 0 0 0 0 0 0 0 0 0 0 0 0 0 0
0 0 0 0 0 0 0 0 0 0 0 0 0 0 0 0 0 0 0 0 0 0 0 0 0 0 0 0 0 0 0 0 0 0 0 0 0 0 0 0 0 0 0 0 0 0 0 0 0
0 0 0 0 0 0 0 0 0 -0 -0 0 -0 0 0 0 0 0 0 0 0 0 0 0 0 0 0 0 0 0 0 0 0 0 0 0 0 0 0 0 0 0 0 0 0 0 0 0 0
0 0 0 0 0 0 0 0 0 0 0 0 0 0 0 0 0 0 0 0 0 0 0 0 0 0 0 0 0 0 0 0 0 0 0 0 0 0 0 0 0 0 0 0 0 0 0 0 0
0 0 0 0 0 0 0 0 0 0 0 0 0 0 0 0 0 0 0 0 0 0 0 0 0 0 0 0 0 0 0 0 0 0 0 0 0 0 0 0 0 0 0 0 0 0 0 0 0
0 0 0 0 0 0 0 0 0 0 0 0 0 0 0 0 0 0 0 0 0 0 0 0 0 0 0 0 0 0 0 0 0 0 0 0 0 0 0 0 0 0 0 0 0 0 0 0 0
0 0 0 0 0 0 0 0 0 0 0 0 0 0 0 0 0 0 0 0 0 0 0 0 0 0 0 0 0 0 0 0 0 0 0 0 0 0 0 0 0 0 0 0 0 0 0 0 0
Wind_Speed_500mb
8 10 11 7 6 4 11 5 2 9 13 5 18 5 7 12 0 4 22 21 29 23 13 6 4 5 6 7 14 16 16 17 17 12 14 13 11 6 19 15 13 18 23 10 12 13 10 11 16
14 17 8 8 9 16 15 4 11 10 12 27 20 15 7 7 6 17 29 29 29 19 14 8 6 5 5 7 11 12 13 15 15 13 13 12 11 12 19 12 11 15 20 14 9 10 11 13 14
9 12 12 10 11 17 10 4 14 18 21 14 11 11 6 7 13 35 22 35 27 18 14 9 7 6 6 8 10 12 13 12 12 15 15 13 9 20 15 7 5 11 8 3 1 5 11 16 12
4 9 6 17 22 19 16 7 16 22 6 7 17 15 11 10 28 19 36 32 24 17 13 9 8 7 8 9 10 12 14 15 15 14 12 12 16 22 14 12 17 10 1 9 4 7 8 10 11
15 9 18 21 22 8 12 10 29 16 12 16 9 12 13 28 21 32 37 30 21 16 12 8 9 9 8 10 11 12 15 17 17 16 14 13 11 15 16 10 15 22 7 8 6 5 6 9 10
19 16 20 28 28 11 11 9 24 8 11 17 13 22 15 25 30 41 36 29 22 14 10 8 9 9 10 11 11 13 15 16 16 17 16 14 12 11 13 10 14 21 14 3 8 9 10 14 15
28 17 28 32 23 13 10 14 15 10 13 13 22 15 13 29 35 43 37 26 18 14 11 9 9 10 11 11 12 14 14 15 16 17 17 16 15 12 9 10 9 12 18 22 18 16 15 17 18
31 16 22 35 23 15 8 9 4 9 9 20 14 10 15 37 47 39 35 27 23 17 15 10 9 11 13 13 13 14 14 16 18 19 19 20 20 17 13 12 11 15 18 23 26 17 17 18 22
27 9 23 35 32 13 9 11 8 5 17 10 10 9 12 54 53 41 39 33 27 20 17 12 10 12 13 14 14 15 15 17 19 21 22 22 21 21 21 21 22 21 20 20 23 26 24 26 28
24 26 38 20 12 16 16 11 15 11 17 9 9 14 37 60 52 42 38 33 28 21 19 14 12 14 15 15 15 15 15 18 19 19 19 20 22 23 24 25 24 23 21 20 23 24 26 29 31
36 38 29 17 8 13 15 13 11 10 15 15 20 34 50 60 47 41 35 30 25 21 20 15 13 15 17 16 16 15 16 17 18 18 19 21 23 24 25 26 26 26 25 24 25 26 28 30 32
31 45 36 20 9 11 20 19 9 16 1 9 11 34 59 62 49 42 36 34 29 23 21 17 16 16 18 17 15 13 13 12 13 16 18 19 21 26 27 29 30 30 28 26 26 28 30 32 34
29 35 35 22 12 7 22 13 3 12 6 9 21 40 58 53 46 39 34 33 27 25 23 19 19 18 18 15 11 9 7 6 6 9 11 16 19 23 27 29 30 33 32 28 27 29 30 31 33
22 26 28 23 11 10 16 12 8 6 6 11 29 42 51 52 48 42 42 37 31 24 24 22 20 18 16 13 9 5 3 4 5 13 16 20 19 22 27 28 31 34 34 30 27 28 30 31 35
45 17 10 16 16 10 18 9 10 7 9 17 27 37 43 48 44 47 43 37 30 26 25 20 20 19 17 14 11 11 12 11 12 13 16 21 21 24 30 33 32 36 30 28 28 30 33 35 36
14 18 23 23 22 4 10 27 16 17 18 19 25 37 43 45 46 44 38 34 30 32 28 25 23 21 20 18 18 18 16 16 17 17 17 19 24 32 36 36 32 28 25 25 28 31 35 37 37
12 17 19 18 25 9 9 17 18 17 17 18 22 29 34 35 39 43 42 36 33 33 33 29 28 27 24 23 24 21 19 17 14 15 17 23 28 33 24 20 22 25 27 30 33 34 39 42 42
27 15 29 12 21 24 22 26 14 19 21 23 25 28 36 38 44 47 49 41 37 36 33 33 34 31 29 29 24 21 19 17 15 16 20 25 28 24 22 24 26 28 29 30 32 36 39 43 47
25 23 23 6 4 30 42 36 27 26 26 28 28 31 35 42 42 46 51 50 45 43 37 29 35 34 32 28 24 22 20 17 16 21 24 26 23 24 23 23 24 25 26 29 35 39 44 45 48
33 27 14 8 7 15 29 51 40 36 39 41 38 39 41 40 42 55 56 54 53 49 45 37 34 31 29 26 24 23 22 21 23 25 22 23 23 21 18 19 21 23 26 29 33 38 46 49 48
18 30 14 11 11 1 9 29 43 32 41 39 43 41 39 47 48 53 58 61 58 55 50 44 37 32 32 26 26 30 23 22 24 21 23 23 18 15 16 17 21 24 27 31 36 40 44 50 52
10 16 25 26 12 6 14 8 23 35 36 37 50 49 54 50 49 53 59 59 57 54 53 48 39 34 33 31 32 30 25 25 25 22 21 15 12 13 14 17 21 25 30 34 38 43 47 51 54
6 11 23 17 14 10 11 5 10 11 31 42 54 65 66 65 62 62 60 56 53 50 50 47 42 41 37 37 34 28 27 28 21 18 13 11 10 10 13 18 23 28 33 38 43 48 51 54 57
22 18 11 8 5 11 21 19 9 16 32 31 43 55 63 60 57 58 59 56 54 54 51 48 45 41 39 31 26 23 22 19 18 15 12 7 5 9 15 21 28 34 40 44 48 52 56 60 64
10 22 4 4 5 7 4 17 22 15 19 28 26 44 52 52 60 61 64 62 59 59 55 50 44 41 34 27 24 22 20 18 16 12 8 4 6 12 20 27 33 39 44 49 54 59 63 66 70
25 22 9 11 10 5 5 12 13 7 18 17 18 15 29 45 52 61 62 61 61 58 54 48 42 37 33 28 24 21 19 16 13 10 7 7 12 19 26 33 39 44 49 54 58 63 68 73 76
7 11 7 10 4 2 10 10 27 10 19 18 10 15 29 41 55 63 62 61 59 56 49 44 43 38 32 27 23 19 16 15 13 9 8 12 18 24 32 39 45 48 52 59 66 72 76 79 80
4 10 7 2 12 10 6 9 6 5 9 5 15 24 30 35 47 56 61 62 59 52 50 46 39 34 29 26 22 20 18 16 11 9 11 16 24 31 39 46 49 53 58 65 72 78 80 80 77
4 5 7 6 2 3 4 2 2 12 17 23 19 25 30 35 47 56 61 61 56 57 55 51 48 39 32 27 24 23 19 14 11 10 15 21 29 38 46 50 53 58 65 71 77 77 76 74 72
4 8 8 5 8 3 3 4 1 12 16 19 25 19 27 36 48 55 61 64 65 63 59 52 45 38 32 28 26 20 16 14 12 15 19 26 34 43 48 52 57 64 71 74 75 74 72 70 67
Wind_Direction_500mb
187 169 145 125 228 56 273 235 113 150 160 116 135 163 137 50 223 10 145 149 149 151 170 155 107 71 67 73 88 92 106 119 89 79 92 60 44 58 79 65 67 81 58 58 57 29 11 13 340
182 178 155 138 198 204 251 220 194 142 128 125 107 112 109 95 90 142 144 150 148 150 155 153 113 89 82 91 91 85 92 100 103 74 102 50 38 43 59 84 65 109 80 86 87 53 7 356 342
139 197 198 209 218 196 263 299 129 121 139 148 120 78 93 96 127 146 158 149 146 151 153 140 110 84 84 96 89 77 71 79 102 101 123 83 61 92 66 40 2 101 121 179 6 328 317 341 341
225 217 189 223 204 190 243 2 139 144 154 142 130 96 95 117 152 161 153 151 152 154 144 126 103 92 93 96 83 70 68 68 70 86 119 78 61 98 63 17 24 17 282 29 36 11 347 342 344
237 241 204 217 214 250 243 289 166 165 149 143 152 127 116 151 161 164 156 153 157 155 141 118 102 100 102 98 86 75 72 71 69 69 67 70 67 87 88 28 8 13 90 40 41 355 336 326 322
207 230 212 207 204 156 250 173 172 172 157 144 121 128 139 173 167 162 162 165 160 156 150 125 110 113 115 107 96 88 83 77 72 71 69 67 63 63 74 53 19 16 59 19 327 331 343 345 345
227 215 221 211 222 207 186 161 179 180 167 164 146 136 148 176 165 164 164 165 170 172 165 139 122 123 122 113 102 95 88 82 79 73 67 63 57 54 53 52 36 13 7 0 346 351 353 347 341
219 215 215 214 216 228 114 187 142 191 154 139 164 169 172 182 167 164 168 176 173 174 165 146 131 132 130 124 113 102 94 83 72 66 63 59 55 50 40 20 357 352 351 348 358 2 354 353 347
193 211 212 216 209 182 172 190 156 146 147 165 183 162 170 165 167 166 173 174 177 174 167 153 142 139 139 132 120 107 93 80 73 69 63 58 53 46 39 28 14 5 360 353 358 7 10 6 357
192 205 205 197 192 178 171 175 167 164 166 180 166 168 157 164 170 171 174 178 183 181 172 163 154 150 147 136 126 112 92 83 78 69 60 49 40 31 27 24 18 10 3 356 354 355 358 0 356
200 214 195 175 166 189 160 139 173 170 205 203 192 167 168 169 174 177 180 185 186 183 179 173 160 153 149 143 136 115 96 87 74 58 45 34 26 21 17 10 5 1 359 358 355 352 348 347 349
192 211 187 154 162 188 165 138 172 199 83 197 188 180 174 174 178 182 186 191 189 186 183 179 170 163 155 149 137 117 100 82 63 36 20 12 10 5 359 356 354 353 352 351 350 347 344 342 341
208 189 187 144 133 230 151 125 137 213 272 230 170 171 178 179 182 187 190 195 192 191 186 182 176 167 159 154 146 130 101 70 28 345 338 345 343 340 338 339 342 344 341 339 339 338 338 336 336
161 164 156 144 149 232 172 117 126 209 222 156 170 175 181 187 186 189 195 198 199 194 190 187 179 177 176 172 169 171 162 318 296 307 324 320 323 327 330 332 331 329 328 332 334 333 335 335 332
137 125 138 166 181 209 146 131 208 176 172 168 174 178 187 194 192 197 197 200 202 200 193 185 196 199 198 199 211 233 258 279 284 296 306 313 326 336 330 326 321 319 324 331 336 337 336 334 331
124 149 180 182 190 212 234 190 182 182 172 174 181 184 194 200 200 198 202 204 206 204 196 199 202 203 211 224 232 244 262 274 287 295 306 319 328 326 317 312 309 318 332 345 342 336 337 337 333
187 184 172 171 208 153 205 210 174 180 179 185 193 191 196 202 203 205 205 206 209 206 207 213 214 219 220 227 234 246 260 273 280 296 304 315 319 315 321 335 341 347 346 340 339 340 337 336 331
169 148 188 161 196 206 202 234 183 194 195 202 201 190 197 202 211 207 210 211 213 216 220 226 225 226 228 234 238 250 262 267 275 289 302 307 308 325 330 332 335 338 342 340 338 337 337 336 333
155 144 145 124 214 204 222 226 212 196 205 209 211 205 205 211 210 212 215 215 218 221 223 239 226 227 230 236 238 251 257 260 273 285 285 292 313 319 324 329 335 341 341 340 340 340 339 341 339
150 154 137 93 144 188 220 229 225 226 225 221 219 215 213 212 213 214 215 219 221 225 227 231 224 226 232 232 238 250 250 260 269 264 279 299 305 314 327 334 334 340 344 343 342 342 341 342 342
158 164 156 142 125 155 215 229 230 225 224 223 226 225 219 214 213 214 214 217 219 223 228 225 223 228 228 232 249 253 241 240 252 268 278 291 305 320 329 335 343 347 347 346 345 340 340 337 335
141 192 160 133 155 221 217 275 228 228 220 217 217 220 222 216 212 215 213 211 212 219 218 216 217 227 236 244 247 248 239 238 248 263 270 278 297 317 332 346 349 346 343 338 336 335 333 331 327
97 133 135 156 178 188 176 251 239 231 243 236 221 218 221 222 216 211 210 209 208 207 208 211 220 229 235 244 245 239 236 242 248 249 247 269 297 326 349 346 339 333 330 330 330 329 327 327 325
129 86 63 79 120 237 190 200 241 199 229 241 231 226 223 217 214 209 205 203 202 204 205 211 217 226 235 235 229 226 228 229 225 221 238 258 305 339 336 331 328 329 329 326 324 324 326 326 322
168 126 113 144 201 231 49 202 249 225 229 232 243 232 223 213 209 204 202 199 200 205 205 209 217 227 227 211 209 210 207 204 208 219 207 224 304 320 322 327 329 326 323 324 325 326 326 324 321
166 175 175 184 199 159 97 227 247 239 277 276 259 240 209 208 201 201 199 200 201 203 204 208 214 212 199 200 202 198 199 204 200 192 205 268 306 319 326 326 323 324 325 325 325 326 324 321 319
190 199 24 100 45 148 193 232 275 279 259 249 251 198 200 201 201 202 199 200 199 198 198 202 195 193 198 199 195 198 200 189 191 206 254 299 315 320 320 322 324 324 324 324 324 324 323 321 321
69 120 104 335 165 221 194 260 243 12 330 289 239 226 205 196 196 195 196 195 196 193 191 183 191 199 198 195 197 192 190 193 209 246 290 307 313 316 320 324 324 322 323 323 323 322 323 322 320
84 119 70 105 256 250 283 181 272 296 302 290 272 235 212 197 191 193 195 196 192 187 181 190 194 194 193 193 193 194 194 207 232 270 292 306 314 320 323 322 321 322 323 324 324 324 324 322 320
93 149 169 175 184 246 324 268 177 303 306 298 286 245 207 201 193 194 194 191 186 186 187 190 191 189 191 192 194 194 212 227 253 277 297 311 319 321 321 320 322 324 325 326 327 325 324 323 324
Wind_Speed_850mb
8 10 11 7 6 4 11 5 2 9 13 5 18 5 7 12 0 4 22 21 29 23 13 6 4 5 6 7 14 16 16 17 17 12 14 13 11 6 19 15 13 18 23 10 12 13 10 11 16
14 17 8 8 9 16 15 4 11 10 12 27 20 15 7 7 6 17 29 29 29 19 14 8 6 5 5 7 11 12 13 15 15 13 13 12 11 12 19 12 11 15 20 14 9 10 11 13 14
9 12 12 10 11 17 10 4 14 18 21 14 11 11 6 7 13 35 22 35 27 18 14 9 7 6 6 8 10 12 13 12 12 15 15 13 9 20 15 7 5 11 8 3 1 5 11 16 12
4 9 6 17 22 19 16 7 16 22 6 7 17 15 11 10 28 19 36 32 24 17 13 9 8 7 8 9 10 12 14 15 15 14 12 12 16 22 14 12 17 10 1 9 4 7 8 10 11
15 9 18 21 22 8 12 10 29 16 12 16 9 12 13 28 21 32 37 30 21 16 12 8 9 9 8 10 11 12 15 17 17 16 14 13 11 15 16 10 15 22 7 8 6 5 6 9 10
19 16 20 28 28 11 11 9 24 8 11 17 13 22 15 25 30 41 36 29 22 14 10 8 9 9 10 11 11 13 15 16 16 17 16 14 12 11 13 10 14 21 14 3 8 9 10 14 15
28 17 28 32 23 13 10 14 15 10 13 13 22 15 13 29 35 43 37 26 18 14 11 9 9 10 11 11 12 14 14 15 16 17 17 16 15 12 9 10 9 12 18 22 18 16 15 17 18
31 16 22 35 23 15 8 9 4 9 9 20 14 10 15 37 47 39 35 27 23 17 15 10 9 11 13 13 13 14 14 16 18 19 19 20 20 17 13 12 11 15 18 23 26 17 17 18 22
27 9 23 35 32 13 9 11 8 5 17 10 10 9 12 54 53 41 39 33 27 20 17 12 10 12 13 14 14 15 15 17 19 21 22 22 21 21 21 21 22 21 20 20 23 26 24 26 28
24 26 38 20 12 16 16 11 15 11 17 9 9 14 37 60 52 42 38 33 28 21 19 14 12 14 15 15 15 15 15 18 19 19 19 20 22 23 24 25 24 23 21 20 23 24 26 29 31
36 38 29 17 8 13 15 13 11 10 15 15 20 34 50 60 47 41 35 30 25 21 20 15 13 15 17 16 16 15 16 17 18 18 19 21 23 24 25 26 26 26 25 24 25 26 28 30 32
31 45 36 20 9 11 20 19 9 16 1 9 11 34 59 62 49 42 36 34 29 23 21 17 16 16 18 17 15 13 13 12 13 16 18 19 21 26 27 29 30 30 28 26 26 28 30 32 34
29 35 35 22 12 7 22 13 3 12 6 9 21 40 58 53 46 39 34 33 27 25 23 19 19 18 18 15 11 9 7 6 6 9 11 16 19 23 27 29 30 33 32 28 27 29 30 31 33
22 26 28 23 11 10 16 12 8 6 6 11 29 42 51 52 48 42 42 37 31 24 24 22 20 18 16 13 9 5 3 4 5 13 16 20 19 22 27 28 31 34 34 30 27 28 30 31 35
45 17 10 16 16 10 18 9 10 7 9 17 27 37 43 48 44 47 43 37 30 26 25 20 20 19 17 14 11 11 12 11 12 13 16 21 21 24 30 33 32 36 30 28 28 30 33 35 36
14 18 23 23 22 4 10 27 16 17 18 19 25 37 43 45 46 44 38 34 30 32 28 25 23 21 20 18 18 18 16 16 17 17 17 19 24 32 36 36 32 28 25 25 28 31 35 37 37
12 17 19 18 25 9 9 17 18 17 17 18 22 29 34 35 39 43 42 36 33 33 33 29 28 27 24 23 24 21 19 17 14 15 17 23 28 33 24 20 22 25 27 30 33 34 39 42 42
27 15 29 12 21 24 22 26 14 19 21 23 25 28 36 38 44 47 49 41 37 36 33 33 34 31 29 29 24 21 19 17 15 16 20 25 28 24 22 24 26 28 29 30 32 36 39 43 47
25 23 23 6 4 30 42 36 27 26 26 28 28 31 35 42 42 46 51 50 45 43 37 29 35 34 32 28 24 22 20 17 16 21 24 26 23 24 23 23 24 25 26 29 35 39 44 45 48
33 27 14 8 7 15 29 51 40 36 39 41 38 39 41 40 42 55 56 54 53 49 45 37 34 31 29 26 24 23 22 21 23 25 22 23 23 21 18 19 21 23 26 29 33 38 46 49 48
18 30 14 11 11 1 9 29 43 32 41 39 43 41 39 47 48 53 58 61 58 55 50 44 37 32 32 26 26 30 23 22 24 21 23 23 18 15 16 17 21 24 27 31 36 40 44 50 52
10 16 25 26 12 6 14 8 23 35 36 37 50 49 54 50 49 53 59 59 57 54 53 48 39 34 33 31 32 30 25 25 25 22 21 15 12 13 14 17 21 25 30 34 38 43 47 51 54
6 11 23 17 14 10 11 5 10 11 31 42 54 65 66 65 62 62 60 56 53 50 50 47 42 41 37 37 34 28 27 28 21 18 13 11 10 10 13 18 23 28 33 38 43 48 51 54 57
22 18 11 8 5 11 21 19 9 16 32 31 43 55 63 60 57 58 59 56 54 54 51 48 45 41 39 31 26 23 22 19 18 15 12 7 5 9 15 21 28 34 40 44 48 52 56 60 64
10 22 4 4 5 7 4 17 22 15 19 28 26 44 52 52 60 61 64 62 59 59 55 50 44 41 34 27 24 22 20 18 16 12 8 4 6 12 20 27 33 39 44 49 54 59 63 66 70
25 22 9 11 10 5 5 12 13 7 18 17 18 15 29 45 52 61 62 61 61 58 54 48 42 37 33 28 24 21 19 16 13 10 7 7 12 19 26 33 39 44 49 54 58 63 68 73 76
7 11 7 10 4 2 10 10 27 10 19 18 10 15 29 41 55 63 62 61 59 56 49 44 43 38 32 27 23 19 16 15 13 9 8 12 18 24 32 39 45 48 52 59 66 72 76 79 80
4 10 7 2 12 10 6 9 6 5 9 5 15 24 30 35 47 56 61 62 59 52 50 46 39 34 29 26 22 20 18 16 11 9 11 16 24 31 39 46 49 53 58 65 72 78 80 80 77
4 5 7 6 2 3 4 2 2 12 17 23 19 25 30 35 47 56 61 61 56 57 55 51 48 39 32 27 24 23 19 14 11 10 15 21 29 38 46 50 53 58 65 71 77 77 76 74 72
4 8 8 5 8 3 3 4 1 12 16 19 25 19 27 36 48 55 61 64 65 63 59 52 45 38 32 28 26 20 16 14 12 15 19 26 34 43 48 52 57 64 71 74 75 74 72 70 67
Wind_Direction_850mb
187 169 145 125 228 56 273 235 113 150 160 116 135 163 137 50 223 10 145 149 149 151 170 155 107 71 67 73 88 92 106 119 89 79 92 60 44 58 79 65 67 81 58 58 57 29 11 13 340
182 178 155 138 198 204 251 220 194 142 128 125 107 112 109 95 90 142 144 150 148 150 155 153 113 89 82 91 91 85 92 100 103 74 102 50 38 43 59 84 65 109 80 86 87 53 7 356 342
139 197 198 209 218 196 263 299 129 121 139 148 120 78 93 96 127 146 158 149 146 151 153 140 110 84 84 96 89 77 71 79 102 101 123 83 61 92 66 40 2 101 121 179 6 328 317 341 341
225 217 189 223 204 190 243 2 139 144 154 142 130 96 95 117 152 161 153 151 152 154 144 126 103 92 93 96 83 70 68 68 70 86 119 78 61 98 63 17 24 17 282 29 36 11 347 342 344
237 241 204 217 214 250 243 289 166 165 149 143 152 127 116 151 161 164 156 153 157 155 141 118 102 100 102 98 86 75 72 71 69 69 67 70 67 87 88 28 8 13 90 40 41 355 336 326 322
207 230 212 207 204 156 250 173 172 172 157 144 121 128 139 173 167 162 162 165 160 156 150 125 110 113 115 107 96 88 83 77 72 71 69 67 63 63 74 53 19 16 59 19 327 331 343 345 345
227 215 221 211 222 207 186 161 179 180 167 164 146 136 148 176 165 164 164 165 170 172 165 139 122 123 122 113 102 95 88 82 79 73 67 63 57 54 53 52 36 13 7 0 346 351 353 347 341
219 215 215 214 216 228 114 187 142 191 154 139 164 169 172 182 167 164 168 176 173 174 165 146 131 132 130 124 113 102 94 83 72 66 63 59 55 50 40 20 357 352 351 348 358 2 354 353 347
193 211 212 216 209 182 172 190 156 146 147 165 183 162 170 165 167 166 173 174 177 174 167 153 142 139 139 132 120 107 93 80 73 69 63 58 53 46 39 28 14 5 360 353 358 7 10 6 357
192 205 205 197 192 178 171 175 167 164 166 180 166 168 157 164 170 171 174 178 183 181 172 163 154 150 147 136 126 112 92 83 78 69 60 49 40 31 27 24 18 10 3 356 354 355 358 0 356
200 214 195 175 166 189 160 139 173 170 205 203 192 167 168 169 174 177 180 185 186 183 179 173 160 153 149 143 136 115 96 87 74 58 45 34 26 21 17 10 5 1 359 358 355 352 348 347 349
192 211 187 154 162 188 165 138 172 199 83 197 188 180 174 174 178 182 186 191 189 186 183 179 170 163 155 149 137 117 100 82 63 36 20 12 10 5 359 356 354 353 352 351 350 347 344 342 341
208 189 187 144 133 230 151 125 137 213 272 230 170 171 178 179 182 187 190 195 192 191 186 182 176 167 159 154 146 130 101 70 28 345 338 345 343 340 338 339 342 344 341 339 339 338 338 336 336
161 164 156 144 149 232 172 117 126 209 222 156 170 175 181 187 186 189 195 198 199 194 190 187 179 177 176 172 169 171 162 318 296 307 324 320 323 327 330 332 331 329 328 332 334 333 335 335 332
137 125 138 166 181 209 146 131 208 176 172 168 174 178 187 194 192 197 197 200 202 200 193 185 196 199 198 199 211 233 258 279 284 296 306 313 326 336 330 326 321 319 324 331 336 337 336 334 331
124 149 180 182 190 212 234 190 182 182 172 174 181 184 194 200 200 198 202 204 206 204 196 199 202 203 211 224 232 244 262 274 287 295 306 319 328 326 317 312 309 318 332 345 342 336 337 337 333
187 184 172 171 208 153 205 210 174 180 179 185 193 191 196 202 203 205 205 206 209 206 207 213 214 219 220 227 234 246 260 273 280 296 304 315 319 315 321 335 341 347 346 340 339 340 337 336 331
169 148 188 161 196 206 202 234 183 194 195 202 201 190 197 202 211 207 210 211 213 216 220 226 225 226 228 234 238 250 262 267 275 289 302 307 308 325 330 332 335 338 342 340 338 337 337 336 333
155 144 145 124 214 204 222 226 212 196 205 209 211 205 205 211 210 212 215 215 218 221 223 239 226 227 230 236 238 251 257 260 273 285 285 292 313 319 324 329 335 341 341 340 340 340 339 341 339
150 154 137 93 144 188 220 229 225 226 225 221 219 215 213 212 213 214 215 219 221 225 227 231 224 226 232 232 238 250 250 260 269 264 279 299 305 314 327 334 334 340 344 343 342 342 341 342 342
158 164 156 142 125 155 215 229 230 225 224 223 226 225 219 214 213 214 214 217 219 223 228 225 223 228 228 232 249 253 241 240 252 268 278 291 305 320 329 335 343 347 347 346 345 340 340 337 335
141 192 160 133 155 221 217 275 228 228 220 217 217 220 222 216 212 215 213 211 212 219 218 216 217 227 236 244 247 248 239 238 248 263 270 278 297 317 332 346 349 346 343 338 336 335 333 331 327
97 133 135 156 178 188 176 251 239 231 243 236 221 218 221 222 216 211 210 209 208 207 208 211 220 229 235 244 245 239 236 242 248 249 247 269 297 326 349 346 339 333 330 330 330 329 327 327 325
129 86 63 79 120 237 190 200 241 199 229 241 231 226 223 217 214 209 205 203 202 204 205 211 217 226 235 235 229 226 228 229 225 221 238 258 305 339 336 331 328 329 329 326 324 324 326 326 322
168 126 113 144 201 231 49 202 249 225 229 232 243 232 223 213 209 204 202 199 200 205 205 209 217 227 227 211 209 210 207 204 208 219 207 224 304 320 322 327 329 326 323 324 325 326 326 324 321
166 175 175 184 199 159 97 227 247 239 277 276 259 240 209 208 201 201 199 200 201 203 204 208 214 212 199 200 202 198 199 204 200 192 205 268 306 319 326 326 323 324 325 325 325 326 324 321 319
190 199 24 100 45 148 193 232 275 279 259 249 251 198 200 201 201 202 199 200 199 198 198 202 195 193 198 199 195 198 200 189 191 206 254 299 315 320 320 322 324 324 324 324 324 324 323 321 321
69 120 104 335 165 221 194 260 243 12 330 289 239 226 205 196 196 195 196 195 196 193 191 183 191 199 198 195 197 192 190 193 209 246 290 307 313 316 320 324 324 322 323 323 323 322 323 322 320
84 119 70 105 256 250 283 181 272 296 302 290 272 235 212 197 191 193 195 196 192 187 181 190 194 194 193 193 193 194 194 207 232 270 292 306 314 320 323 322 321 322 323 324 324 324 324 322 320
93 149 169 175 184 246 324 268 177 303 306 298 286 245 207 201 193 194 194 191 186 186 187 190 191 189 191 192 194 194 212 227 253 277 297 311 319 321 321 320 322 324 325 326 327 325 324 323 324